EW0380 Weather Reports


Display with metric or nautical units.
time (UTC)temp
F
wind
direction
speed
MPH
gust
MPH
rain 1hr
in
rain 24hr
in
rain mn
in
humidity
%
barometer
mb
20260502123025 38 0.0 0.0 0.00 0.26 0.01 92 1017.9
20260502122029 37 0.0 0.0 0.00 0.27 0.01 93 1017.7
20260502121015 37 0.0 0.0 0.00 0.28 0.01 94 1017.7
20260502115024 37 0.0 0.0 0.00 0.29 0.01 94 1017.9
20260502114029 37 0.0 0.0 0.00 0.29 0.01 94 1017.9
20260502113032 36 0.0 0.0 0.00 0.30 0.01 94 1017.9
20260502112018 36 45 0.0 1.0 0.01 0.30 0.01 94 1017.7
20260502111023 36 25 1.0 3.0 0.01 0.30 0.01 94 1017.7
20260502110028 36 0.0 0.0 0.01 0.30 0.01 94 1017.5
20260502105032 36 0.0 0.0 0.01 0.30 0.01 94 1017.5
20260502104018 36 0.0 0.0 0.01 0.30 0.01 94 1017.5
20260502103043 36 0.0 0.0 0.01 0.30 0.01 93 1017.3
20260502102047 36 113 1.0 2.0 0.00 0.29 0.00 93 1017.3
20260502101025 36 133 2.0 2.0 0.00 0.29 0.00 92 1017.3
20260502091015 37 14 2.0 2.0 0.00 0.29 0.00 87 1017.0
20260502071020 39 0.0 0.0 0.00 0.29 0.00 92 1016.7
20260502070023 39 0.0 0.0 0.00 0.29 0.00 92 1016.8
20260502065028 39 0.0 0.0 0.00 0.29 0.00 92 1016.8
20260502064032 39 0.0 0.0 0.00 0.29 0.00 92 1016.9
20260502063018 39 0.0 0.0 0.00 0.29 0.00 91 1017.0
20260502062022 39 0.0 0.0 0.00 0.29 0.00 91 1017.1
20260502061027 39 0.0 0.0 0.00 0.29 0.00 90 1017.2
20260502060032 39 0.0 0.0 0.00 0.29 0.00 90 1017.3
20260502055018 39 0.0 0.0 0.00 0.29 0.00 90 1017.3
20260502054021 39 0.0 0.0 0.00 0.29 0.00 94 1017.4
20260502053025 39 0.0 0.0 0.00 0.29 0.00 94 1017.5
20260502052050 39 0.0 0.0 0.00 0.29 0.00 94 1017.5
20260502051016 39 0.0 0.0 0.00 0.29 0.00 95 1017.5
20260502050020 39 0.0 0.0 0.00 0.29 0.00 95 1017.2
20260502045044 39 0.0 0.0 0.00 0.29 0.00 95 1017.3
20260502044029 39 0.0 0.0 0.00 0.29 0.00 95 1017.3
20260502043015 39 0.0 0.0 0.00 0.29 0.00 95 1017.1
20260502042019 39 0.0 0.0 0.00 0.29 0.00 95 1017.2
20260502041024 39 0.0 0.0 0.00 0.29 0.00 95 1017.2
20260502040022 39 0.0 0.0 0.00 0.29 0.00 95 1017.0
20260502035020 39 0.0 0.0 0.00 0.29 0.29 95 1017.0
20260502034019 39 0.0 0.0 0.00 0.29 0.29 95 1017.0
20260502033017 38 0.0 0.0 0.00 0.29 0.29 95 1017.0
20260502032015 38 0.0 0.0 0.00 0.29 0.29 95 1016.8
20260502031031 38 0.0 0.0 0.00 0.29 0.29 95 1016.8
20260502030018 38 0.0 0.0 0.00 0.29 0.29 95 1016.8
20260502025022 38 0.0 0.0 0.00 0.29 0.29 95 1016.8
20260502024026 38 0.0 0.0 0.00 0.29 0.29 94 1016.8
20260502023030 38 180 0.0 1.0 0.00 0.29 0.29 94 1016.9
20260502022017 37 225 0.0 2.0 0.00 0.29 0.29 93 1017.0
20260502021021 38 0.0 0.0 0.00 0.29 0.29 93 1016.7
20260502020025 37 248 0.0 2.0 0.00 0.29 0.29 92 1016.6
20260502015030 38 0.0 0.0 0.00 0.29 0.29 90 1016.5
20260502014016 38 0.0 0.0 0.00 0.29 0.29 91 1016.4
20260502013021 39 0.0 0.0 0.00 0.29 0.29 89 1016.4
20260502012045 39 270 0.0 2.0 0.00 0.29 0.29 89 1016.2
20260502011029 39 46 1.0 2.0 0.00 0.29 0.29 88 1016.1
20260502010016 40 40 1.0 2.0 0.00 0.29 0.29 86 1015.9
20260502005021 41 0.0 0.0 0.00 0.29 0.29 85 1015.7
20260502004024 41 273 1.0 2.0 0.00 0.29 0.29 83 1015.6
20260502003028 41 261 0.0 2.0 0.00 0.29 0.29 82 1015.6
20260502002032 42 8 1.0 2.0 0.00 0.29 0.29 80 1015.5
20260502001018 42 18 1.0 3.0 0.00 0.29 0.29 79 1015.5
20260502000043 43 31 2.0 3.0 0.00 0.29 0.29 76 1015.3
20260501235028 43 352 2.0 4.0 0.00 0.29 0.29 73 1015.1
20260501234052 44 16 3.0 5.0 0.00 0.29 0.29 70 1015.0
20260501233038 45 12 3.0 5.0 0.00 0.29 0.29 70 1014.8
20260501232022 45 16 3.0 4.0 0.00 0.29 0.29 67 1014.6
20260501231027 46 348 2.0 3.0 0.00 0.29 0.29 66 1014.5
20260501230032 47 11 3.0 4.0 0.00 0.29 0.29 66 1014.6
20260501225017 49 11 3.0 4.0 0.00 0.29 0.29 64 1014.6
20260501224022 49 10 4.0 5.0 0.00 0.29 0.29 64 1014.6
20260501223046 49 349 2.0 4.0 0.00 0.29 0.29 69 1014.6
20260501222024 48 11 2.0 4.0 0.00 0.29 0.29 74 1014.6
20260501221017 47 13 2.0 3.0 0.00 0.29 0.29 75 1014.5
20260501220021 46 307 2.0 3.0 0.00 0.29 0.29 77 1014.4
20260501215019 46 345 1.0 2.0 0.00 0.29 0.29 79 1014.4
20260501214017 45 79 2.0 3.0 0.00 0.29 0.29 81 1014.3
20260501213016 45 114 3.0 4.0 0.01 0.29 0.29 81 1014.3
20260501212020 45 149 2.0 3.0 0.01 0.29 0.29 81 1014.1
20260501211024 44 354 2.0 3.0 0.01 0.29 0.29 83 1014.1
20260501210029 44 1 2.0 3.0 0.01 0.29 0.29 86 1014.3
20260501205015 42 29 3.0 4.0 0.01 0.29 0.29 89 1014.4
20260501204019 42 19 3.0 5.0 0.01 0.29 0.29 89 1014.4
20260501203024 42 24 1.0 3.0 0.00 0.28 0.28 89 1014.4
20260501202028 41 31 3.0 4.0 0.00 0.28 0.28 90 1014.3
20260501201032 41 22 3.0 5.0 0.01 0.28 0.28 91 1014.3
20260501200019 41 6 4.0 6.0 0.01 0.28 0.28 91 1014.4
20260501195024 41 12 3.0 4.0 0.01 0.28 0.28 91 1014.3
20260501194047 41 19 5.0 6.0 0.01 0.28 0.28 91 1014.2
20260501193031 40 31 4.0 6.0 0.01 0.28 0.28 92 1014.1
20260501192038 40 8 4.0 5.0 0.01 0.28 0.28 93 1014.3
20260501191042 41 7 4.0 6.0 0.00 0.27 0.27 94 1014.1
20260501190026 41 24 4.0 6.0 0.00 0.27 0.27 93 1014.1
20260501185031 41 30 3.0 5.0 0.00 0.27 0.27 93 1014.1
20260501184017 41 30 3.0 4.0 0.00 0.27 0.27 93 1014.1
20260501183021 41 21 3.0 5.0 0.00 0.27 0.27 93 1014.1
20260501182025 41 26 5.0 6.0 0.00 0.27 0.27 94 1013.9
20260501181030 40 23 5.0 7.0 0.01 0.27 0.27 94 1013.9
20260501180016 40 2 5.0 7.0 0.01 0.27 0.27 94 1013.8
20260501175020 41 23 4.0 7.0 0.02 0.27 0.27 93 1013.8
20260501174025 41 22 5.0 6.0 0.03 0.27 0.27 93 1013.8
20260501173029 41 33 5.0 7.0 0.03 0.27 0.27 93 1013.9
20260501172015 41 12 4.0 6.0 0.04 0.27 0.27 94 1013.6
20260501171020 41 28 5.0 7.0 0.04 0.26 0.26 94 1013.6
20260501170024 41 9 5.0 6.0 0.05 0.26 0.26 94 1013.8
20260501165028 42 12 4.0 5.0 0.05 0.25 0.25 95 1013.9
20260501164026 42 11 4.0 4.0 0.06 0.24 0.24 95 1013.9
20260501163019 42 14 4.0 5.0 0.07 0.24 0.24 95 1013.9
20260501162023 42 19 3.0 4.0 0.07 0.23 0.23 95 1013.9
20260501161021 42 16 3.0 4.0 0.08 0.22 0.22 95 1013.9
20260501160020 42 8 3.0 4.0 0.07 0.21 0.21 95 1013.9
20260501155018 42 11 3.0 4.0 0.06 0.20 0.20 95 1013.9
20260501154037 42 33 1.0 2.0 0.04 0.18 0.18 95 1013.9
20260501153027 42 23 0.0 2.0 0.03 0.17 0.17 95 1013.9
20260501152030 42 31 1.0 2.0 0.03 0.16 0.16 95 1013.9
20260501151017 42 0.0 0.0 0.01 0.14 0.14 95 1013.8
20260501150022 42 23 0.0 2.0 0.02 0.14 0.14 95 1013.8
20260501145025 42 29 2.0 2.0 0.02 0.14 0.14 95 1013.8